Weather History for Devils Lake, ND

Change the Weather History Date:

Tuesday, December 27, 2011

  Actual Average Record
Temperature  
Mean Temperature 12 °F -  
Max Temperature 19 °F 18 °F 41 °F (1997)
Min Temperature 6 °F 0 °F -25 °F (1960)
Degree Days  
Heating Degree Days 52    
Moisture  
Dew Point 7 °F    
Average Humidity 80    
Maximum Humidity 93    
Minimum Humidity 62    
Precipitation  
Precipitation 0.06 in - - ()
Sea Level Pressure  
Sea Level Pressure 30.02 in    
Wind  
Wind Speed 13 mph (NE)    
Max Wind Speed 29 mph    
Max Gust Speed 24 mph    
Visibility 10 miles    
Events      
Averages and records for this station are not official NWS values.
T = Trace of Precipitation, MM = Missing Value Source: NWS Daily Summary

Daily Weather History Graph

Daily Weather History Graph

Search for Another Location

Airport:

Trip Planner

Search our weather history database for the weather conditions in past years. The results will help you decide how hot, cold, wet, or windy it might be!

Date:

Astronomy

Dec. 27, 2011 Rise Set
Actual Time 8:25 AM CST 4:48 PM CST
Civil Twilight 7:48 AM CST 5:24 PM CST
Nautical Twilight 7:09 AM CST 6:04 PM CST
Astronomical Twilight 6:31 AM CST 6:42 PM CST
Moon 10:07 AM CST (12/27) 8:39 PM CST (12/27)
Length of Visible Light 9h 35m
Length of Day
8h 22m
Waxing Crescent, 11% of the Moon is Illuminated
Dec 27
Waxing Crescent
Jan 1
First Quarter
Jan 9
Full
Jan 16
Last Quarter
Jan 23
New

Hourly Weather History & Observations

Time (CST) Temp. Windchill Dew Point Humidity Pressure Visibility Wind Dir Wind Speed Gust Speed Precip Events Conditions
12:15 AM 19.4 °F 0.8 °F 17.6 °F 93% 29.93 in 10.0 mi North 28.8 mph - N/A   Mostly Cloudy
12:35 AM 17.6 °F 1.7 °F 15.8 °F 93% 29.94 in 10.0 mi North 18.4 mph 23.0 mph N/A   Partly Cloudy
12:55 AM 17.6 °F 2.2 °F 14.0 °F 86% 29.95 in 10.0 mi North 17.3 mph - N/A   Partly Cloudy
1:15 AM 17.6 °F 3.7 °F 14.0 °F 86% 29.97 in 10.0 mi North 13.8 mph 20.7 mph N/A   Partly Cloudy
1:35 AM 17.6 °F 1.7 °F 15.8 °F 93% 29.98 in 10.0 mi North 18.4 mph - N/A   Clear
1:55 AM 17.6 °F 2.7 °F 14.0 °F 86% 29.98 in 10.0 mi North 16.1 mph 24.2 mph N/A   Clear
2:15 AM 15.8 °F 0.3 °F 12.2 °F 86% 30.00 in 10.0 mi North 16.1 mph 23.0 mph N/A   Clear
2:35 AM 15.8 °F 1.4 °F 12.2 °F 86% 30.02 in 10.0 mi North 13.8 mph - N/A   Clear
2:55 AM 15.8 °F 0.9 °F 10.4 °F 79% 30.03 in 10.0 mi North 15.0 mph 20.7 mph N/A   Clear
3:15 AM 14.0 °F -2.0 °F 10.4 °F 86% 30.04 in 10.0 mi North 16.1 mph 21.9 mph N/A   Clear
3:35 AM 14.0 °F -0.8 °F 10.4 °F 86% 30.05 in 10.0 mi North 13.8 mph - N/A   Clear
3:55 AM 12.2 °F -3.1 °F 8.6 °F 85% 30.06 in 10.0 mi North 13.8 mph - N/A   Clear
4:15 AM 12.2 °F -3.1 °F 8.6 °F 85% 30.08 in 10.0 mi NNW 13.8 mph - N/A   Clear
4:35 AM 12.2 °F -3.1 °F 8.6 °F 85% 30.08 in 10.0 mi North 13.8 mph - N/A   Clear
4:55 AM 10.4 °F -5.4 °F 6.8 °F 85% 30.08 in 10.0 mi North 13.8 mph - N/A   Clear
5:15 AM 10.4 °F -6.0 °F 5.0 °F 79% 30.08 in 10.0 mi North 15.0 mph - N/A   Clear
5:35 AM 8.6 °F -7.0 °F 6.8 °F 92% 30.08 in 10.0 mi North 12.7 mph - N/A   Clear
5:55 AM 8.6 °F -6.3 °F 6.8 °F 92% 30.08 in 10.0 mi North 11.5 mph - N/A   Clear
6:15 AM 8.6 °F -6.3 °F 3.2 °F 79% 30.06 in 10.0 mi NNE 11.5 mph - N/A   Clear
6:35 AM 8.6 °F -7.0 °F 3.2 °F 79% 30.06 in 10.0 mi NNE 12.7 mph - N/A   Clear
6:55 AM 6.8 °F -7.8 °F 3.2 °F 85% 30.06 in 10.0 mi NNE 10.4 mph - N/A   Clear
7:15 AM 6.8 °F -6.9 °F 3.2 °F 85% 30.07 in 10.0 mi NNE 9.2 mph - N/A   Clear
7:35 AM 6.8 °F -3.5 °F 1.4 °F 79% 30.07 in 10.0 mi NE 5.8 mph - N/A   Clear
7:55 AM 6.8 °F -4.8 °F 1.4 °F 79% 30.06 in 10.0 mi NNE 6.9 mph - N/A   Clear
8:15 AM 6.8 °F -0.1 °F 1.4 °F 79% 30.08 in 10.0 mi North 3.5 mph - N/A   Clear
8:35 AM 6.8 °F - 1.4 °F 79% 30.09 in 10.0 mi Calm Calm - N/A   Clear
8:55 AM 6.8 °F -0.1 °F 1.4 °F 79% 30.08 in 10.0 mi North 3.5 mph - N/A   Clear
9:15 AM 6.8 °F -0.1 °F 3.2 °F 85% 30.10 in 10.0 mi North 3.5 mph - N/A   Clear
9:35 AM 6.8 °F -4.8 °F 3.2 °F 85% 30.10 in 10.0 mi North 6.9 mph - N/A   Clear
9:55 AM 6.8 °F -3.5 °F 1.4 °F 79% 30.09 in 10.0 mi NNE 5.8 mph - N/A   Clear
10:15 AM 6.8 °F -4.8 °F 1.4 °F 79% 30.09 in 10.0 mi NE 6.9 mph - N/A   Clear
10:35 AM 6.8 °F -3.5 °F 3.2 °F 85% 30.08 in 10.0 mi NE 5.8 mph - N/A   Clear
10:55 AM 8.6 °F - 1.4 °F 73% 30.08 in 10.0 mi Calm Calm - N/A   Clear
11:15 AM 8.6 °F - 1.4 °F 73% 30.07 in 10.0 mi Calm Calm - N/A   Clear
11:35 AM 8.6 °F 2.0 °F 1.4 °F 73% 30.06 in 10.0 mi ENE 3.5 mph - N/A   Clear
11:55 AM 10.4 °F - 3.2 °F 73% 30.06 in 10.0 mi Calm Calm - N/A   Clear
12:15 PM 12.2 °F - 1.4 °F 62% 30.06 in 10.0 mi Calm Calm - N/A   Clear
12:35 PM 10.4 °F 4.0 °F 3.2 °F 73% 30.04 in 10.0 mi ENE 3.5 mph - N/A   Clear
12:55 PM 10.4 °F - 5.0 °F 79% 30.03 in 10.0 mi Calm Calm - N/A   Clear
1:15 PM 12.2 °F - 3.2 °F 67% 30.02 in 10.0 mi Calm Calm - N/A   Clear
1:35 PM 12.2 °F 6.1 °F 3.2 °F 67% 30.00 in 10.0 mi East 3.5 mph - N/A   Clear
1:55 PM 12.2 °F 2.9 °F 3.2 °F 67% 29.99 in 10.0 mi SE 5.8 mph - N/A   Clear
2:15 PM 12.2 °F 1.7 °F 3.2 °F 67% 29.98 in 10.0 mi SE 6.9 mph - N/A   Clear
2:35 PM 12.2 °F 0.7 °F 3.2 °F 67% 29.98 in 10.0 mi SSE 8.1 mph - N/A   Clear
2:55 PM 12.2 °F -0.2 °F 3.2 °F 67% 29.97 in 10.0 mi SSE 9.2 mph - N/A   Partly Cloudy
3:15 PM 12.2 °F 0.7 °F 6.8 °F 79% 29.98 in 10.0 mi SSE 8.1 mph - N/A   Partly Cloudy
3:35 PM 14.0 °F 3.9 °F 6.8 °F 73% 29.97 in 10.0 mi SSE 6.9 mph - N/A   Mostly Cloudy
3:55 PM 14.0 °F 2.0 °F 10.4 °F 86% 29.96 in 10.0 mi SSE 9.2 mph - N/A   Overcast
4:15 PM 14.0 °F 0.5 °F 10.4 °F 86% 29.94 in 10.0 mi SE 11.5 mph - N/A   Overcast
4:35 PM 15.8 °F 2.7 °F 10.4 °F 79% 29.94 in 10.0 mi SE 11.5 mph - N/A   Mostly Cloudy
4:55 PM 15.8 °F 2.7 °F 10.4 °F 79% 29.94 in 10.0 mi SE 11.5 mph - N/A   Overcast
5:15 PM 15.8 °F 3.4 °F 8.6 °F 73% 29.93 in 10.0 mi SE 10.4 mph - N/A   Overcast
5:35 PM 15.8 °F 2.7 °F 8.6 °F 73% 29.92 in 10.0 mi SE 11.5 mph - N/A   Overcast
5:55 PM 15.8 °F 2.7 °F 10.4 °F 79% 29.91 in 10.0 mi SE 11.5 mph - N/A   Overcast
6:15 PM 15.8 °F 2.1 °F 10.4 °F 79% 29.90 in 10.0 mi SE 12.7 mph - N/A   Overcast
6:35 PM 15.8 °F 2.1 °F 10.4 °F 79% 29.90 in 10.0 mi SSE 12.7 mph - N/A   Mostly Cloudy
6:55 PM 15.8 °F 1.4 °F 8.6 °F 73% 29.89 in 10.0 mi SSE 13.8 mph - N/A   Overcast
7:15 PM 15.8 °F 2.1 °F 8.6 °F 73% 29.89 in 10.0 mi South 12.7 mph - N/A   Overcast
7:35 PM 15.8 °F 0.9 °F 10.4 °F 79% 29.88 in 8.0 mi SSE 15.0 mph - N/A   Overcast
7:55 PM 15.8 °F 0.3 °F 12.2 °F 86% 29.87 in 4.0 mi SSE 16.1 mph - N/A   Overcast
8:15 PM 15.8 °F 1.4 °F 12.2 °F 86% 29.86 in 7.0 mi SSE 13.8 mph - N/A   Overcast
8:35 PM 15.8 °F 0.9 °F 12.2 °F 86% 29.85 in 3.0 mi SSE 15.0 mph - N/A   Overcast
8:55 PM 15.8 °F 0.9 °F 12.2 °F 86% 29.84 in 9.0 mi SSE 15.0 mph - N/A   Overcast
9:15 PM 15.8 °F 0.3 °F 14.0 °F 93% 29.84 in 8.0 mi SSE 16.1 mph - N/A   Overcast
9:35 PM 15.8 °F -0.2 °F 15.8 °F 100% 29.82 in 10.0 mi SSE 17.3 mph - N/A   Overcast
9:55 PM 15.8 °F -0.6 °F 14.0 °F 93% 29.81 in 10.0 mi SSE 18.4 mph - N/A   Overcast
10:15 PM 15.8 °F -0.6 °F 14.0 °F 93% 29.79 in 10.0 mi SSE 18.4 mph - N/A   Overcast
10:35 PM 17.6 °F 3.2 °F 14.0 °F 86% 29.78 in 10.0 mi SSE 15.0 mph - N/A   Mostly Cloudy
10:55 PM 17.6 °F 3.2 °F 14.0 °F 86% 29.77 in 10.0 mi SSE 15.0 mph 19.6 mph N/A   Scattered Clouds
11:15 PM 17.6 °F 2.7 °F 14.0 °F 86% 29.77 in 10.0 mi SSE 16.1 mph - N/A   Scattered Clouds
11:35 PM 17.6 °F 2.2 °F 14.0 °F 86% 29.75 in 10.0 mi SSE 17.3 mph - N/A   Partly Cloudy
11:55 PM 17.6 °F 2.7 °F 14.0 °F 86% 29.74 in 10.0 mi SSE 16.1 mph - N/A   Clear